User: anonymous   Login
Location: Montr�al
(45.5000°N, 73.5830°W)
Time: 00:44:20
(UTC-04:00)
Language:

Cosmos 1470 Rocket - Orbit

View from above orbital plane
View from above orbital plane
View from above satellite
View from above satellite

Ground track
Ground track

The orbit data is extracted from the following two-line orbital elements,

1 14148U 83061B   16238.98017890  .00000093  00000-0  84125-5 0  9995
2 14148  82.5204 186.0668 0020467 222.8575 206.3069 14.83180015791088
Epoch (UTC): 25 August 2016 23:31:27
Eccentricity: 0.0020467
inclination: 82.5204°
perigee height: 605 km
apogee height: 633 km
right ascension of ascending node: 186.0668°
argument of perigee: 222.8575°
revolutions per day: 14.83180015
mean anomaly at epoch: 206.3069°
orbit number at epoch: 79108

The dashed part of the orbit path shows where the satellite is in the earth's shadow,  

DLR